DECAYED

JIELONG 3 R/B, 65131 (Decayed)

Orbit data source: Space-Track

JIELONG 3 R/B, 65131 was space debris in LEO originally from a launch on Fri, 08 Aug 2025 UTC launched from the Yellow Sea Launch Area, China (YSLA). Debris objects in space refer to the collection of defunct objects orbiting the Earth. Examples of debris include non-operational satellites, rocket bodies, and fragments generated from explosions, collisions, or faulty payload assembly.

Not visible in the next 10 days
Identifier
65131, 2025-170N
Orbit
Decayed
Country
Flag of CNCN / PRC
Related business
Manufacturer
Changzheng H.
Mission
Decayed spacecraft
Bus & Motor
Unknown
Mass
500 kg wet, 500 kg dry
Launch date (UTC)
2025-08-08 (6 months ago)
Launch vehicle
Unknown
Launch site
Yellow Sea Launch Area, China (YSLA)
Object type
Payload
Rocket body
Debris
Shape & HBR
Unknown shape, 1.1 m
Radar Cross Section
RCS unknown

Expand to show TLE details & history
Last TLE update: 6 months ago

TLE from 6 months ago
0 JIELONG 3 R/B
1 65131U 25170N   25222.75348174  .20209411  14084-4  87823-4 0  9995
2 65131  50.1636 174.2758 0162424 353.8728  76.8326 16.29165810   324
Epoch: 2025-08-10T18:05Z
TLE epoch observation values (Epoch: 2025-08-10T18:05:00.822Z)
Latitude
47.2495°
Longitude
7.35398°
Altitude
176.935 km
Speed
7.82 km/s
True Right ascension
15h 52m 18s
True Declination
47° 03' 46"
Sunlit
Object was in daylight at epoch
Visualization orbit readout
Latitude
Unknown
Longitude
Unknown
Altitude
Unknown
Speed
Unknown
Apparent Right ascension
Unknown
Apparent Declination
Unknown
Sunlit
N/A
Visualization observer readout
Local Sidereal Time
10:22:01
Azimuth
Unknown
Elevation
Unknown
Doppler factor
Unknown
Orbital elements
Apogee altitude
302.334 km
Perigee altitude
88.789 km
Semi-major axis
6,573.698 km
Eccentricity
0.01624
Inclination
50.1636°
RAAN
174.2758°
Arg. of periapsis
353.8728°
True anomaly
78.65302°
Mean anomaly
76.8326°
Eccentric anomaly
77.742°
Mean motion
4.07219 °/min
Orbital period
88.4 mins
BSTAR
0.000087823
Loading maneuver chart data...
Computing Atmospheric mass density...
Loading historical data...
Loading historical data...
Loading historical data...
Loading historical data...
Loading historical data...
Loading historical data...
Loading historical data...

Documentation

Showing up to 5 results
|